User: anonymous   Login
Location: 5810 Zion Rd, Cleves, OH 45002, USA
(39.1922°N, 84.7113°W)
Time: 01:39:35
(UTC-05:00)
Language:

SR - Orbit

View from above orbital plane
View from above orbital plane
View from above satellite
View from above satellite

Ground track
Ground track

The orbit data is extracted from the following two-line orbital elements,

1    46U 60007B   19339.37342029 -.00000077  00000-0  82083-5 0  9999
2    46  66.6897 213.6272 0217417 276.3758  81.2632 14.49261311110834
Epoch (UTC): 05 December 2019 08:57:43
Eccentricity: 0.0217417
inclination: 66.6897°
perigee height: 573 km
apogee height: 882 km
right ascension of ascending node: 213.6272°
argument of perigee: 276.3758°
revolutions per day: 14.49261311
mean anomaly at epoch: 81.2632°
orbit number at epoch: 11083

The dashed part of the orbit path shows where the satellite is in the earth's shadow,  

DLR